SCP
0 0 0 0 0 0 0 0 0 0 0 0 0 0 0 0 0 0 0 0 0 0 0 0 0 0 0 0 0 0 0 0 0 0 0 0 0 0 0 0 0 0 0
0 0 0 0 0 0 0 0 0 0 0 0 0 0 0 0 0 0 0 0 0 0 0 0 0 0 0 0 0 0 0 0 0 0 0 0 0 0 0 0 0 0 0
0 0 0 0 0 0 0 0 0 0 0 0 0 0 0 0 0 0 0 0 0 0 0 0 0 0 0 0 0 0 0 0 0 0 0 0 0 0 0 0 0 0 0
0 0 0 0 0 0 0 0 0 0 0 0 0 0 0 0 0 0 0 0 0 0 0 0 0 0 0 0 0 0 0 0 0 0 0 0 0 0 0 0 0 0 0
0 0 0 0 0 0 0 0 0 0 0 0 0 0 0 0 0 0 0 0 0 0 0 0 0 0 0 0 0 0 0 0 0 0 0 0 0 0 0 0 0 0 0
0 0 0 0 0 0 0 0 0 0 0 0 0 0 0 0 0 0 0 0 0 0 0 0 0 0 0 0 0 0 0 0 0 0 0 0 0 0 0 0 0 0 0
0 0 0 0 0 0 0 0 0 0 0 0 0 0 0 0 0 0 0 0 0 0 0 0 0 0 0 0 0 0 0 0 0 0 0 0 0 0 0 0 0 0 0
0 0 0 0 0 0 0 0 0 0 0 0 0 0 0 0 0 0 0 0 0 0 0 0 0 0 0 0 0 0 0 0 0 0 0 0 0 0 0 0 0 0 0
0 0 0 0 0 0 0 0 0 0 0 0 0 0 0 0 0 0 0 0 0 0 0 0 0 0 0 0 0 0 0 0 0 0 0 0 0 0 0 0 0 0 0
0 0 0 0 0 0 0 0 0 0 0 0 0 0 0 0 0 0 0 0 0 0 0 0 0 0 0 0 0 0 0 0 0 0 0 0 0 0 0 0 0 0 0
0 0 0 0 0 0 0 0 0 0 0 0 0 0 0 0 0 0 0 0 0 0 0 0 0 0 0 0 0 0 0 0 0 0 0 0 0 0 0 0 0 0 0
0 0 0 0 0 0 0 0 0 0 0 0 0 0 0 0 0 0 0 0 0 0 0 0 0 0 0 0 0 0 0 0 0 0 0 0 0 0 0 0 0 0 0
0 0 0 0 0 0 0 0 0 0 0 0 0 0 0 0 0 0 0 0 0 0 0 0 0 0 0 0 0 0 0 0 0 0 0 0 0 0 0 0 0 0 0
0 0 0 0 0 0 0 0 0 0 0 0 0 0 0 0 0 0 0 0 0 0 0 0 0 0 0 0 0 0 0 0 0 0 0 0 0 0 0 0 0 0 0
0 0 0 0 0 0 0 0 0 0 0 0 0 0 0 0 0 0 0 0 0 0 0 0 0 0 0 0 0 0 0 0 0 0 0 0 0 0 0 0 0 0 0
0 0 0 0 0 0 0 0 0 0 0 0 0 0 0 0 0 0 0 0 0 0 0 0 0 0 0 0 0 0 0 0 0 0 0 0 0 0 0 0 0 0 0
0 0 0 0 0 0 0 0 0 0 0 0 0 0 0 0 0 0 0 0 0 0 0 0 0 0 0 0 0 0 0 0 0 0 0 0 0 0 0 0 0 0 0
1 1 0 0 0 0 0 0 0 0 0 0 0 0 0 0 0 0 0 0 0 0 0 0 0 0 0 0 0 0 0 0 0 0 0 0 0 0 0 0 0 0 0
1 1 1 0 0 0 0 0 0 0 0 0 0 0 0 0 0 0 0 0 0 0 0 0 0 0 0 0 0 0 0 0 0 0 0 0 0 0 0 0 0 0 0
1 1 1 1 1 1 1 0 0 0 0 0 0 1 1 0 0 0 0 0 0 0 0 0 0 0 0 0 0 0 0 0 0 0 0 0 0 0 0 0 0 0 0
1 1 1 1 1 1 1 1 0 0 0 1 1 1 1 1 0 0 0 0 0 0 0 0 0 0 0 0 0 0 0 0 0 0 0 0 0 0 0 0 0 0 0
1 1 1 1 1 1 1 1 1 1 1 1 1 1 1 1 1 0 0 0 0 0 0 0 0 0 0 0 0 0 0 0 0 0 0 0 0 0 0 0 0 0 0
1 1 1 1 1 1 1 1 1 1 1 1 1 1 1 1 1 0 0 0 0 0 0 0 0 0 0 0 0 0 0 0 0 0 0 0 0 0 0 0 0 0 0
1 1 1 1 1 1 1 1 1 1 1 1 1 1 1 1 1 1 0 0 0 0 0 0 0 0 0 0 0 0 0 0 0 0 0 0 0 0 0 0 0 0 0
1 1 1 1 1 1 1 1 1 1 1 1 1 1 1 1 1 1 1 1 0 0 0 0 0 0 0 0 0 0 0 0 0 0 0 0 0 0 0 0 0 0 0
1 1 1 1 1 1 1 1 1 1 1 1 1 1 1 1 1 1 1 1 1 0 0 0 0 0 0 0 0 0 0 0 0 0 0 0 0 0 0 0 0 0 0
Wind_Speed
9 10 10 10 10 10 10 10 10 10 11 12 12 10 10 10 10 10 10 11 11 12 12 11 11 11 10 10 9 9 9 10 10 10 10 10 9 8 8 7 6 6 8
12 11 11 10 10 11 11 10 11 11 11 11 11 10 10 9 9 10 10 10 11 11 11 11 11 11 10 10 9 9 9 9 9 9 10 8 7 7 6 5 6 5 7
12 11 10 10 10 11 11 11 11 11 11 11 10 10 10 10 10 10 10 10 11 11 11 11 11 10 10 9 9 8 8 8 8 8 8 5 5 6 6 7 8 7 6
12 10 10 10 11 11 11 11 11 11 11 11 10 9 10 10 10 9 9 10 10 10 11 10 10 10 10 9 8 7 7 7 6 6 3 4 4 7 7 7 7 6 5
11 11 11 11 11 11 11 11 10 10 10 10 10 10 9 9 9 9 9 10 10 10 10 10 10 10 9 8 8 6 6 5 4 3 2 4 4 7 7 7 6 5 5
11 11 11 11 12 11 11 10 10 10 9 9 9 9 9 9 9 9 9 9 9 10 10 10 10 9 9 7 6 5 4 4 3 2 3 4 5 6 7 6 6 5 5
11 11 10 11 12 12 11 10 10 9 9 8 9 8 8 8 9 9 9 9 9 9 9 9 9 9 8 7 6 5 4 3 2 1 3 4 5 7 7 6 6 5 5
10 11 11 11 12 11 10 10 10 9 8 8 8 8 8 8 8 9 9 9 9 9 9 9 9 9 8 7 6 4 3 3 2 2 3 4 7 8 7 6 6 6 5
10 10 10 10 10 10 10 10 10 9 8 8 8 7 8 8 8 8 9 9 10 9 9 9 9 8 7 6 5 4 4 3 2 2 3 3 7 8 7 6 6 5 5
8 8 8 9 9 9 9 9 10 9 8 7 7 7 7 8 8 8 9 9 9 9 9 8 8 8 7 6 5 4 4 3 2 2 3 4 7 7 7 6 6 5 5
7 6 7 7 7 8 9 10 10 10 9 7 6 7 6 4 5 6 8 10 9 9 8 8 8 7 6 6 6 5 4 2 1 2 3 6 7 6 6 6 5 6 5
6 6 5 5 5 6 6 7 5 6 6 4 3 4 3 3 4 6 9 10 9 8 8 8 8 7 5 3 5 6 3 3 1 3 4 7 6 5 5 5 5 6 5
7 6 6 5 4 5 4 4 3 3 4 4 3 3 2 2 4 5 4 6 6 6 5 6 6 4 3 2 2 2 2 1 1 3 4 7 6 6 5 4 4 5 5
7 7 6 6 5 5 4 3 3 3 3 3 4 2 2 2 2 3 2 3 3 2 3 3 2 2 2 2 2 1 1 1 2 3 4 7 6 6 5 5 5 4 4
8 8 7 7 5 4 3 1 3 3 3 4 3 3 2 2 3 2 2 2 2 2 2 2 2 2 2 2 2 2 1 1 2 3 3 7 7 6 6 6 6 5 5
7 8 7 7 6 4 3 1 1 3 3 3 3 4 3 3 3 2 2 1 2 2 2 2 2 2 2 1 1 1 2 2 2 3 4 5 7 7 7 7 6 6 6
7 7 6 7 6 4 2 1 2 2 4 3 3 4 3 3 3 2 2 1 1 2 3 2 2 2 2 2 2 2 2 2 2 2 4 4 5 7 8 8 7 7 7
8 6 4 5 7 5 2 1 1 2 3 2 2 3 4 3 3 1 2 2 2 2 1 2 2 1 2 2 1 2 2 2 3 3 3 3 4 5 7 9 8 7 7
7 6 4 3 5 4 3 1 2 2 2 1 2 3 3 3 2 2 1 1 2 2 2 2 2 1 1 2 2 3 3 3 3 4 4 4 4 4 4 7 9 8 7
8 6 5 4 3 3 3 2 1 1 2 2 2 2 3 2 1 1 1 1 1 1 1 1 1 1 1 2 2 2 2 2 3 2 3 3 3 4 5 5 5 6 8
8 7 5 4 4 2 1 1 1 1 1 2 3 3 2 2 1 0 0 1 1 1 1 1 1 1 1 1 1 1 1 2 3 2 2 2 3 3 4 5 5 4 4
8 7 6 5 4 3 2 1 1 1 1 2 2 3 2 1 2 2 1 1 1 1 1 1 1 1 1 1 1 1 1 1 1 2 2 2 3 2 3 4 4 4 3
9 8 6 5 5 3 3 2 1 2 1 1 2 2 2 1 1 0 1 1 0 1 1 2 2 2 2 2 1 1 1 1 1 0 1 1 1 2 2 2 3 3 4
10 9 7 6 5 4 2 2 2 2 2 1 1 2 1 1 1 1 1 0 1 0 0 2 1 1 2 2 1 1 1 0 1 1 2 1 2 2 2 2 1 2 2
10 9 8 7 5 4 3 2 1 1 1 1 1 2 2 2 2 1 1 1 0 1 1 1 0 1 2 2 2 1 1 1 2 1 2 2 1 1 1 1 1 1 2
9 9 9 8 6 5 4 3 2 1 1 1 0 2 2 2 2 2 2 1 1 1 1 1 1 2 2 2 2 2 1 1 1 2 2 2 2 2 1 1 1 1 2
Wind_Direction
88 92 94 89 88 88 88 93 96 94 97 104 109 109 108 108 110 114 116 120 123 126 130 132 131 129 125 119 113 111 110 110 109 108 104 101 97 96 101 108 113 106 109
99 98 95 92 89 90 91 92 96 98 97 100 104 107 107 109 112 114 117 122 125 127 128 129 131 130 127 123 119 118 120 120 120 119 116 112 108 106 104 100 99 112 120
99 103 100 95 94 94 95 95 96 99 100 100 103 105 105 104 109 112 118 124 127 131 129 126 129 128 127 125 124 125 129 130 133 134 132 125 118 116 114 107 107 121 126
96 98 96 100 99 97 97 96 96 99 101 102 101 102 104 106 107 113 121 126 130 132 133 132 136 132 130 130 133 139 143 145 150 155 147 132 122 118 125 122 124 127 135
96 98 101 105 103 101 100 99 97 96 97 100 100 101 104 106 107 111 123 128 131 133 137 139 138 137 134 133 137 142 145 154 167 180 137 112 109 128 134 137 138 142 147
99 101 108 112 110 107 102 100 100 99 99 100 102 104 107 109 111 112 118 125 129 133 137 140 141 139 135 138 143 145 151 170 210 192 136 129 127 143 143 146 150 154 154
104 109 115 116 115 114 111 108 105 102 102 105 105 107 109 112 116 116 117 129 135 136 139 141 142 142 142 148 152 160 176 209 237 176 120 119 135 148 151 155 153 156 158
110 115 122 122 119 119 120 118 115 111 109 110 112 111 113 114 117 120 121 121 125 128 135 139 141 140 144 152 162 180 198 255 211 139 126 122 145 154 159 165 163 165 165
106 119 133 138 132 128 125 123 124 123 123 125 123 124 124 122 122 126 125 124 126 126 130 136 141 144 150 161 174 195 216 238 252 151 143 128 150 156 162 165 165 167 168
99 112 127 134 139 143 137 137 133 136 138 142 143 142 141 137 135 137 131 131 132 135 140 144 149 154 165 174 188 210 232 249 221 165 123 134 153 156 163 167 171 172 172
94 110 122 130 138 147 145 144 149 150 156 157 163 168 166 162 147 148 133 138 142 145 149 154 160 167 171 186 206 221 232 233 190 116 109 140 153 158 161 168 175 180 182
103 105 103 107 122 137 133 137 153 154 154 165 150 148 156 151 135 133 137 148 151 155 158 167 176 176 181 188 202 214 230 217 167 123 125 146 154 163 169 167 173 178 184
106 100 101 94 101 115 116 130 142 138 136 138 123 125 136 133 134 132 147 150 158 164 172 167 178 183 178 183 201 205 217 217 135 119 131 148 152 159 164 167 176 184 191
105 104 96 90 85 85 91 117 127 116 123 128 126 114 107 102 115 119 132 145 156 158 160 163 173 167 171 180 208 224 213 193 118 116 142 156 160 168 174 176 183 195 200
110 107 99 93 83 80 73 73 105 109 110 116 120 118 103 105 103 111 135 132 138 145 163 169 165 152 159 189 203 201 216 147 140 150 150 166 173 181 183 183 194 198 206
108 107 109 109 103 102 104 97 98 109 112 109 115 112 108 110 112 122 126 114 120 150 165 163 163 151 169 191 205 209 205 181 184 172 160 176 187 189 188 193 204 210 211
115 112 122 127 118 118 123 132 126 114 116 112 117 118 114 111 123 129 131 134 156 171 160 165 172 152 167 191 202 219 216 207 200 185 172 177 183 191 197 200 204 209 213
122 116 127 123 126 129 118 81 74 87 95 102 112 116 116 117 124 123 138 160 180 167 159 168 168 178 178 185 208 229 205 206 201 199 196 183 181 185 197 199 199 206 213
120 122 121 99 115 128 131 122 123 103 95 109 113 114 120 127 136 144 146 180 198 175 178 184 147 174 191 194 212 220 215 199 201 207 196 192 190 177 175 189 198 206 212
128 128 131 129 117 128 137 141 131 107 130 127 107 111 119 132 136 149 162 196 212 152 141 119 139 196 223 235 250 232 221 199 193 201 205 195 187 190 181 174 186 207 217
138 137 138 141 137 137 128 144 153 149 153 138 136 122 116 140 154 189 123 199 194 182 167 155 165 230 238 233 259 269 249 217 194 193 197 196 199 197 181 173 181 186 199
148 148 145 153 154 158 151 163 173 169 167 146 112 110 130 163 172 184 160 220 207 174 163 183 213 237 260 234 235 291 295 277 288 207 183 197 210 204 193 196 188 187 190
156 157 160 158 154 166 172 179 164 148 158 108 129 141 163 171 162 333 129 276 288 177 177 195 222 225 254 258 225 221 275 289 313 291 226 207 209 219 212 208 193 191 185
162 161 154 150 152 160 175 192 189 174 170 171 142 130 146 215 201 183 136 154 309 330 193 228 199 252 256 271 270 258 237 229 281 306 304 242 215 230 227 236 208 178 172
165 161 155 149 153 160 182 199 210 206 185 147 122 134 177 190 194 164 158 170 240 268 236 250 232 275 268 271 284 264 258 233 232 240 273 281 262 229 205 216 192 171 175
163 161 152 146 153 165 181 191 182 228 242 111 154 173 207 190 181 176 180 189 236 259 251 245 236 238 263 294 306 293 267 265 266 252 254 259 264 261 185 208 182 196 193